{"data":{"norad_id":64353,"epoch":"2026-05-24T20:37:13.308384Z","epoch_age_seconds":83346,"freshness":"FRESH","line1":"1 64353U 25126K   26144.85918181  .00032827  00000+0  27412-2 0  9994","line2":"2 64353  70.0024 202.3124 0003148 345.5216  14.5852 14.98399491 52090","mean_motion":14.98399491,"eccentricity":0.0003148,"inclination_deg":70.0024,"raan_deg":202.3124,"arg_perigee_deg":345.5216,"mean_anomaly_deg":14.5852,"bstar":0.0027412,"rev_number":5209,"period_min":96.102541988917,"perigee_km":569.65315098874,"apogee_km":574.0288571401,"semimajor_km":6949.9780040644,"source":"CELESTRAK","updated_at":"2026-05-25T13:38:20.402659Z"}}